Cloud_Cover
2 0 0 0 0 0 0 0 0 0 0 0 0 0 0 0 0 0 0 0 0 0 0 0 2 5 0 0 1 0 0 12 9 10 6 54 25 91 100 100 100 100 100 100
4 0 0 0 0 0 0 0 0 0 0 0 0 0 0 0 0 0 0 0 0 0 0 0 0 5 30 75 12 5 5 0 0 5 16 95 20 81 100 100 93 100 100 100
3 4 2 0 0 0 0 0 0 0 0 0 0 0 0 0 0 0 0 0 0 0 0 0 0 0 1 4 2 0 0 0 0 0 1 5 53 39 28 100 100 100 100 100
5 5 5 5 5 1 0 0 0 0 1 4 0 4 0 0 0 0 0 0 0 0 0 0 0 0 0 0 3 4 2 0 0 0 0 0 1 4 57 95 97 100 100 100
6 5 5 5 1 0 0 0 0 0 2 1 0 4 0 0 0 0 0 0 0 0 0 0 0 5 5 5 5 5 5 5 0 5 5 5 0 5 5 2 100 100 100 100
5 5 2 5 0 0 0 0 0 0 4 32 0 2 0 0 0 0 0 0 0 0 0 4 5 7 5 5 5 5 5 5 5 5 5 5 5 4 5 5 1 83 100 100
5 5 5 1 0 0 0 0 0 0 5 2 0 0 0 0 0 0 0 0 0 0 5 5 23 56 14 6 5 5 5 25 5 5 8 5 5 5 5 5 5 0 14 94
5 5 5 0 0 0 0 5 0 0 0 1 0 0 0 0 0 0 0 0 2 4 8 57 96 74 53 5 48 69 74 81 78 51 22 5 5 33 5 5 5 0 0 0
97 44 5 5 4 0 0 4 0 4 30 66 4 0 0 0 0 0 0 1 1 29 59 100 100 43 56 81 77 96 92 58 55 75 45 68 68 68 57 20 5 5 0 0
61 11 6 73 1 2 0 0 6 65 1 0 0 1 0 0 3 0 0 0 4 12 98 81 93 85 93 98 89 86 98 100 95 100 98 34 93 100 100 8 32 5 0 0
99 84 82 19 2 5 5 46 4 2 4 6 79 0 0 1 5 0 0 4 5 50 74 79 42 75 88 90 96 100 100 100 100 100 100 81 100 100 100 69 58 49 38 87
100 100 100 5 5 5 5 5 3 0 0 5 5 1 0 4 5 0 0 5 15 35 100 78 70 86 90 93 88 100 100 100 100 100 100 100 100 100 100 100 100 100 100 100
100 100 58 5 6 7 5 2 1 4 5 5 1 8 0 5 5 30 3 5 34 99 81 80 91 97 100 92 93 100 100 100 100 100 100 100 100 100 100 100 100 100 100 100
100 100 8 5 8 10 5 5 0 2 85 12 2 26 92 99 4 5 61 34 46 100 100 86 95 100 93 100 100 100 100 100 100 100 100 100 100 100 100 100 100 100 100 100
100 95 7 6 6 8 5 0 4 5 2 0 0 0 0 4 2 0 14 9 97 100 100 100 98 100 99 95 99 100 100 100 100 100 100 100 100 100 100 100 100 100 100 100
100 59 29 12 5 77 5 5 0 3 4 0 0 2 5 4 2 5 64 62 100 100 100 100 99 94 100 100 97 100 100 100 100 100 100 100 100 100 100 100 100 100 100 100
68 32 99 82 48 100 9 5 5 5 5 0 3 1 5 5 5 64 72 73 100 100 100 100 100 100 100 100 100 100 100 100 100 100 100 100 100 100 100 100 100 100 100 100
41 22 98 100 100 100 15 5 5 17 4 0 2 2 5 5 5 86 95 99 100 100 100 97 99 98 96 100 100 100 100 100 100 100 100 100 100 100 100 100 100 100 100 100
29 69 97 100 100 91 6 5 6 12 0 0 0 0 3 5 5 75 98 99 100 100 100 99 66 93 94 87 94 100 98 100 100 100 100 100 100 100 100 100 100 100 100 100
97 54 100 100 100 53 5 4 10 28 0 0 0 0 0 4 4 5 100 98 90 21 67 84 55 84 78 38 100 100 100 100 100 100 100 100 100 100 100 100 100 100 100 100
99 100 100 100 96 64 16 5 7 60 4 0 0 0 0 0 4 58 100 49 67 62 52 38 38 88 93 44 28 79 100 100 100 100 100 100 100 100 100 100 100 100 100 98
100 100 100 95 86 100 67 5 72 36 5 0 0 0 0 0 73 98 64 65 10 5 56 26 57 67 62 48 8 93 100 99 100 100 100 100 100 100 100 100 100 100 94 91
100 100 100 93 29 84 95 39 5 8 7 2 5 0 0 0 0 7 20 14 5 5 5 5 5 5 5 9 61 90 98 99 94 99 100 100 92 97 100 100 100 100 100 98
100 100 100 64 45 51 92 6 5 5 5 2 0 0 0 0 0 0 5 5 5 5 5 5 5 5 5 11 6 10 6 11 40 34 77 99 99 100 100 100 99 96 90 62
100 78 76 100 15 73 99 22 5 14 31 4 2 0 0 0 0 0 4 5 5 5 5 5 5 5 5 5 5 5 5 5 34 6 30 23 52 98 94 98 94 87 68 13
100 100 15 95 5 46 100 59 73 22 6 5 4 4 0 0 0 0 3 5 5 5 5 5 5 5 5 5 5 5 5 5 5 5 12 25 5 66 68 36 56 85 96 100